Burnsville, North Carolina, United States (28714)
Lat: 35.92N, Lon: 82.3W
Wx Zone: NCZ049
Local Info
Past Weather Observations for Monday, May 2, 2016

NOTE: This archive is for the closest National Weather Service station to Burnsville. Information may differ from the station used for current weather conditions.

Click here for Long-term Archive

Time Weather Temperature Dewpoint Humidity Pressure Winds Precip Visibility
23:54
Clear
61°F / 16°C 57°F / 14°C 88% 29.92 in
(1013 mb)
Calm - 10SM
22:54
Partly Cloudy
61°F / 16°C 57°F / 14°C 88% 29.95 in
(1014 mb)
Calm 0.01 in
(0.25 mm)
10SM
22:15
Overcast
Light Rain
61°F / 16°C 57°F / 14°C 88% 29.98 in
(1015 mb)
Variable 3.5 mph
(Variable 6 kph)
0.01 in
(0.25 mm)
10SM
22:03
Overcast
Thunder Storms
61°F / 16°C 57°F / 14°C 88% 29.98 in
(1015 mb)
E 4.6 mph
(E 7 kph)
0.01 in
(0.25 mm)
10SM
21:54
Overcast
Thunder Storms
61°F / 16°C 59°F / 15°C 94% 29.98 in
(1015 mb)
ENE 3.5 mph
(ENE 6 kph)
0.29 in
(7.37 mm)
10SM
21:35
Overcast
Thunder Storms
61°F / 16°C 59°F / 15°C 94% 30.01 in
(1016 mb)
ENE 3.5 mph
(ENE 6 kph)
0.28 in
(7.11 mm)
10SM
21:27
Overcast
Thunder Storms
61°F / 16°C 59°F / 15°C 94% 29.98 in
(1015 mb)
NE 3.5 mph
(NE 6 kph)
0.28 in
(7.11 mm)
2SM
21:24
Overcast
Thunder Storms
61°F / 16°C 59°F / 15°C 94% 30.01 in
(1016 mb)
NE 5.8 mph
(NE 9 kph)
0.23 in
(5.84 mm)
1 1/2SM
21:20
Overcast
Thunder Storms
61°F / 16°C 59°F / 15°C 94% 30.01 in
(1016 mb)
Variable 3.5 mph
(Variable 6 kph)
0.12 in
(3.05 mm)
1 1/4SM
21:16
Overcast
Thunder Storms
63°F / 17°C 59°F / 15°C 88% 30.01 in
(1016 mb)
N 4.6 mph
(N 7 kph)
0.04 in
(1.02 mm)
1 3/4SM
21:14
Overcast
Thunder Storms
63°F / 17°C 59°F / 15°C 88% 30.01 in
(1016 mb)
NNW 4.6 mph
(NNW 7 kph)
0.04 in
(1.02 mm)
2 1/2SM
20:54
Overcast
Thunder Storms
64°F / 18°C 57°F / 14°C 78% 29.98 in
(1015 mb)
N 9.2 mph
(N 15 kph)
0.00 in
(0.00 mm)
10SM
20:37
Overcast
Thunder Storms
64°F / 18°C 57°F / 14°C 78% 29.95 in
(1014 mb)
NNW 13.8 mph
(NNW 22 kph)
0.00 in
(0.00 mm)
10SM
19:54
Partly Cloudy
Light Rain
64°F / 18°C 59°F / 15°C 83% 29.95 in
(1014 mb)
N 15 mph
(N 24 kph)
0.00 in
(0.00 mm)
10SM
19:15
Mostly Cloudy
73°F / 23°C 57°F / 14°C 57% 29.95 in
(1014 mb)
W 4.6 mph
(W 7 kph)
- 10SM
18:54
Clear
Thunder Storms
73°F / 23°C 57°F / 14°C 57% 29.92 in
(1013 mb)
SW 3.5 mph
(SW 6 kph)
0.00 in
(0.00 mm)
10SM
18:05
Overcast
75°F / 24°C 57°F / 14°C 54% 29.92 in
(1013 mb)
SSE 6.9 mph
(SSE 11 kph)
0.00 in
(0.00 mm)
10SM
17:54
Mostly Cloudy
Thunder Storms
75°F / 24°C 57°F / 14°C 54% 29.92 in
(1013 mb)
SW 5.8 mph
(SW 9 kph)
0.00 in
(0.00 mm)
10SM
17:50
Mostly Cloudy
Thunder Storms
75°F / 24°C 57°F / 14°C 54% 29.95 in
(1014 mb)
SW 6.9 mph
(SW 11 kph)
0.00 in
(0.00 mm)
10SM
16:54
Partly Cloudy
79°F / 26°C 57°F / 14°C 48% 29.95 in
(1014 mb)
S 13.8 mph
(S 22 kph)
0.00 in
(0.00 mm)
10SM
15:54
Partly Cloudy
Light Rain
77°F / 25°C 59°F / 15°C 54% 29.95 in
(1014 mb)
SSE 11.5 mph
(SSE 19 kph)
0.00 in
(0.00 mm)
10SM
14:54
Clear
Light Rain
75°F / 24°C 59°F / 15°C 57% 29.98 in
(1015 mb)
SW 12.7 mph
(SW 20 kph)
0.00 in
(0.00 mm)
10SM
13:54
Mostly Cloudy
Light Rain
73°F / 23°C 61°F / 16°C 65% 30.01 in
(1016 mb)
Variable 4.6 mph
(Variable 7 kph)
0.00 in
(0.00 mm)
10SM
13:42
Mostly Cloudy
Thunder Storms
77°F / 25°C 57°F / 14°C 51% 30.01 in
(1016 mb)
W 9.2 mph
(W 15 kph)
0.00 in
(0.00 mm)
10SM
13:27
Partly Cloudy
Thunder Storms
79°F / 26°C 57°F / 14°C 48% 30.01 in
(1016 mb)
SSW 8.1 mph
(SSW 13 kph)
0.00 in
(0.00 mm)
10SM
12:54
Mostly Cloudy
Thunder Storms
77°F / 25°C 57°F / 14°C 51% 30.01 in
(1016 mb)
N 6.9 mph
(N 11 kph)
- 10SM
12:34
Overcast
Thunder Storms
79°F / 26°C 55°F / 13°C 45% 30.01 in
(1016 mb)
S 12.7 mph
(S 20 kph)
- 10SM
11:54
Mostly Cloudy
79°F / 26°C 55°F / 13°C 45% 30.04 in
(1017 mb)
SSE 6.9 mph
(SSE 11 kph)
- 10SM
10:54
Clear
75°F / 24°C 55°F / 13°C 50% 30.06 in
(1018 mb)
Calm - 10SM
09:54
Partly Cloudy
73°F / 23°C 55°F / 13°C 53% 30.06 in
(1018 mb)
Calm - 10SM
08:54
Mostly Cloudy
68°F / 20°C 59°F / 15°C 73% 30.09 in
(1019 mb)
Calm - 10SM
07:54
Mostly Cloudy
64°F / 18°C 61°F / 16°C 88% 30.09 in
(1019 mb)
Calm - 10SM
07:25
Partly Cloudy
61°F / 16°C 59°F / 15°C 94% 30.09 in
(1019 mb)
Calm - 8SM
07:17
Mostly Cloudy
Fog And Mist
61°F / 16°C 57°F / 14°C 88% 30.09 in
(1019 mb)
Calm - 2SM
07:11
Obscured
Fog And Mist
59°F / 15°C 57°F / 14°C 94% 30.09 in
(1019 mb)
Calm - 1SM
06:54
Obscured
Fog
59°F / 15°C 57°F / 14°C 94% 30.09 in
(1019 mb)
Calm - 1/4SM
06:41
Obscured
Fog
59°F / 15°C 57°F / 14°C 94% 30.09 in
(1019 mb)
Calm - 1/4SM
06:33
Obscured
Fog
57°F / 14°C 57°F / 14°C 100% 30.06 in
(1018 mb)
Calm - M1/4SM
06:08
Obscured
Fog
57°F / 14°C 57°F / 14°C 100% 30.06 in
(1018 mb)
Calm - 1/4SM
06:00
Obscured
Fog
57°F / 14°C 55°F / 13°C 94% 30.06 in
(1018 mb)
Calm - 1/2SM
05:58
Partly Cloudy
Fog And Mist
57°F / 14°C 55°F / 13°C 94% 30.06 in
(1018 mb)
Calm - 1 1/2SM
05:54
Partly Cloudy
57°F / 14°C 55°F / 13°C 94% 30.06 in
(1018 mb)
SE 4.6 mph
(SE 7 kph)
- 7SM
04:54
Mostly Cloudy
59°F / 15°C 57°F / 14°C 94% 30.06 in
(1018 mb)
Calm - 8SM
03:54
Clear
61°F / 16°C 57°F / 14°C 88% 30.06 in
(1018 mb)
Calm - 10SM
02:54
Mostly Cloudy
63°F / 17°C 57°F / 14°C 83% 30.06 in
(1018 mb)
Calm - 10SM
01:54
Partly Cloudy
63°F / 17°C 57°F / 14°C 83% 30.04 in
(1017 mb)
SSE 3.5 mph
(SSE 6 kph)
- 10SM
00:54
Clear
63°F / 17°C 61°F / 16°C 94% 30.06 in
(1018 mb)
Calm - 10SM
Time Weather Temperature Dewpoint Humidity Pressure Winds Precip Visibility


Weather for websites

WeatherForYou.com, LLC is not responsible for any damages or problems caused by this service. Current weather conditions are obtained from the closest station including government and personal stations which may have varying degrees of accuracy. Weather forecasts are derived from the NOAA NDFD. Like all things, this site belongs to Jesus Christ... He just trusts us to maintain it. If you have any questions or comments email webmaster@weatherforyou.com

Copyright © 2016, WeatherForYou.com LLC. All rights reserved.